sat.trackr.live / text

‹ back to catalog

STARLINK-6156

NORAD 56374 · 2023-061A

PAYLOAD ACTIVE UNKNOWN

§ Identity

Operator
Country
US
Launch date
2023-05-04
Launch site
AFETR
Launch vehicle
Mass (kg)
RCS (m²)

Purposes: comms

External: N2YO · Heavens-Above · Gunter

§ Orbital elements

Epoch: 2026-05-24T23:43:16.383648Z

Period
94.27 min
Inclination
43.0017°
Eccentricity
0.0001028
Mean motion
15.27577997 rev/d
Perigee alt
482.3 km
Apogee alt
483.8 km
Semi-major
6,861.2 km
B*
1.5944e-5
RAAN
127.4241°
Arg perigee
270.1455°
Mean anomaly
89.9279°
Rev number
16,951

§ Raw data

STARLINK-61561 56374U 23061A   26144.98838407  .00000177  00000+0  15944-4 0  99922 56374  43.0017 127.4241 0001028 270.1455  89.9279 15.27577997169513

JSON: /api/v1/satellites/56374 · /tle

For live sub-satellite position, see the globe view (requires WebGL).

§ Visibility from observer

Set your observer location to see the next 7 days of passes ≥ 10°. The values pass through the URL so the page stays shareable.

No JS? Fill the form by hand. The geolocation button needs JavaScript.